Deering, AK

3:05 AM AKDT on March 29, 2017 (GMT -0800)
Deering (New)

Weather History for PADE - March, 2013

Change the Weather History Date:

Saturday, March 2, 2013

  Actual Average (PAOT) Record (PAOT)
Temperature  
Mean Temperature -22 °F -  
Max Temperature -14 °F 6 °F 35 °F (2003)
Min Temperature -29 °F -10 °F -43 °F (1929)
Degree Days  
Heating Degree Days 86    
Moisture  
Dew Point -28 °F    
Average Humidity 75    
Maximum Humidity 82    
Minimum Humidity 68    
Precipitation  
Precipitation 0.00 in - - ()
Sea Level Pressure  
Sea Level Pressure 30.15 in    
Wind  
Wind Speed 1 mph (SE)    
Max Wind Speed 9 mph    
Max Gust Speed -    
Visibility 10 miles    
Events      
Averages and records for this station are not official NWS values.
T = Trace of Precipitation, MM = Missing Value Source: NWS Daily Summary

Daily Weather History Graph

Daily Weather History Graph

Search for Another Location

Airport or City:

Trip Planner

Search our weather history database for the weather conditions in past years. The results will help you decide how hot, cold, wet, or windy it might be!

Date:

Astronomy

Mar. 02, 2013 Rise Set
Actual Time 8:58 AM AKST 7:09 PM AKST
Civil Twilight 8:06 AM AKST 8:01 PM AKST
Nautical Twilight 7:07 AM AKST 9:00 PM AKST
Astronomical Twilight 6:05 AM AKST 10:03 PM AKST
Moon 2:18 AM AKST (3/2) 9:04 AM AKST (3/2)
Length of Visible Light 11h 54m
Length of Day
10h 11m
Waning Gibbous, 72% of the Moon is Illuminated
Mar 2
Waning Gibbous
Mar 4
Last Quarter
Mar 11
New
Mar 19
First Quarter
Mar 27
Full

Hourly Weather History & Observations

Time (AKST) Temp. Windchill Dew Point Humidity Pressure Visibility Wind Dir Wind Speed Gust Speed Precip Events Conditions
12:53 AM -24.0 °F - -31.0 °F 70% 30.16 in 10.0 mi Calm Calm - N/A   Clear
1:53 AM -27.9 °F - -32.1 °F 81% 30.15 in 10.0 mi Calm Calm - N/A   Clear
3:53 AM -26.0 °F - -32.1 °F 73% 30.14 in 10.0 mi Calm Calm - N/A   Clear
4:53 AM -27.0 °F - -33.0 °F 73% 30.13 in 10.0 mi Calm Calm - N/A   Clear
5:53 AM -27.9 °F - -32.1 °F 81% 30.13 in 10.0 mi Calm Calm - N/A   Clear
6:53 AM -27.9 °F -42.5 °F -34.1 °F 73% 30.13 in 10.0 mi SSW 4.6 mph - N/A   Clear
7:53 AM -29.9 °F - - N/A% 30.13 in 10.0 mi Calm Calm - N/A   Clear
8:53 AM -29.0 °F - -34.1 °F 77% 30.14 in 10.0 mi Calm Calm - N/A   Clear
9:53 AM -27.9 °F - -33.0 °F 77% 30.14 in 10.0 mi Calm Calm - N/A   Clear
10:53 AM -22.0 °F -42.3 °F -27.9 °F 74% 30.15 in 10.0 mi ENE 9.2 mph - N/A   Clear
11:53 AM -17.0 °F -31.7 °F -23.1 °F 74% 30.16 in 10.0 mi ENE 5.8 mph - N/A   Clear
12:53 PM -18.0 °F - -22.0 °F 82% 30.17 in 10.0 mi Calm Calm - N/A   Clear
1:53 PM -18.0 °F -30.9 °F -24.0 °F 74% 30.17 in 10.0 mi NE 4.6 mph - N/A   Clear
2:53 PM -17.0 °F - -23.1 °F 74% 30.16 in 10.0 mi Calm Calm - N/A   Clear
3:53 PM -14.1 °F - -22.0 °F 68% 30.16 in 10.0 mi Calm Calm - N/A   Clear
4:53 PM -16.1 °F - -22.0 °F 74% 30.16 in 10.0 mi Calm Calm - N/A   Clear
5:53 PM -15.0 °F - -22.0 °F 71% 30.15 in 10.0 mi Calm Calm - N/A   Clear
6:53 PM -18.0 °F -33.0 °F -25.1 °F 70% 30.16 in 10.0 mi SSW 5.8 mph - N/A   Clear
7:53 PM -20.0 °F -33.3 °F -26.0 °F 74% 30.15 in 10.0 mi SSW 4.6 mph - N/A   Clear
8:53 PM -25.1 °F - -29.9 °F 78% 30.14 in 10.0 mi Calm Calm - N/A   Clear
9:53 PM -22.0 °F - -27.0 °F 77% 30.14 in 10.0 mi Calm Calm - N/A   Clear
10:53 PM -23.1 °F - -29.0 °F 74% 30.14 in 10.0 mi Calm Calm - N/A   Clear
11:53 PM -23.1 °F - -27.9 °F 78% 30.13 in 10.0 mi Calm Calm - N/A   Clear